GW1572 Weather Reports


time (UTC)temp
C
wind
direction
speed
KPH
gust
KPH
rain 1hr
cm
rain 24hr
cm
rain mn
cm
humidity
%
barometer
mb
20260831053031 21 136 0.0 0.0 0.00 0.00 0.00 99 1010.8
20260831051825 21 137 0.0 0.0 0.00 0.00 0.00 99 1010.8
20260831050642 22 134 0.0 0.0 0.00 0.00 0.00 99 1010.8
20260831045438 21 132 0.0 0.0 0.00 0.00 0.00 99 1011.1
20260831044213 22 132 0.0 0.0 0.00 0.00 0.00 99 1010.8
20260831043638 22 132 0.0 0.0 0.00 0.00 0.00 99 1010.8
20260831043049 22 132 0.0 0.0 0.00 0.00 0.00 99 1010.8
20260831042416 22 129 0.0 0.0 0.00 0.00 0.00 99 1010.8
20260831041832 22 129 0.0 0.0 0.00 0.00 0.00 99 1011.1
20260831040635 22 128 0.0 0.0 0.00 0.00 0.00 99 1011.1
20260831040028 22 120 0.0 0.0 0.00 0.00 0.13 99 1011.1
20260831034829 22 100 0.0 0.0 0.00 0.00 0.13 99 1011.1
20260831034219 22 145 0.0 0.0 0.00 0.00 0.13 99 1011.1
20260831033644 22 145 0.0 0.0 0.00 0.00 0.13 99 1011.1
20260831033012 22 145 0.0 0.0 0.00 0.00 0.13 99 1011.1
20260831032451 22 145 0.0 0.0 0.00 0.00 0.13 99 1011.1
20260831031813 22 145 0.0 0.0 0.00 0.00 0.13 99 1011.1
20260831031234 22 145 0.0 0.0 0.00 0.00 0.13 99 1011.1
20260831030621 22 145 0.0 0.0 0.00 0.00 0.13 99 1011.1
20260831025424 22 145 0.0 0.0 0.00 0.00 0.13 99 1011.1
20260831024226 23 145 0.0 0.0 0.00 0.00 0.13 99 1011.1
20260831023629 23 145 0.0 0.0 0.00 0.00 0.13 99 1011.1
20260831023010 23 145 0.0 0.0 0.00 0.00 0.13 99 1011.1
20260831022426 23 145 0.0 0.0 0.00 0.00 0.13 99 1011.1
20260831021811 23 145 0.0 0.0 0.00 0.00 0.13 99 1011.1
20260831021246 23 145 0.0 0.0 0.00 0.00 0.13 99 1011.1
20260831020640 23 145 0.0 0.0 0.00 0.00 0.13 99 1010.8
20260831015435 23 141 0.0 0.0 0.00 0.00 0.13 99 1010.8
20260831014807 23 141 0.0 0.0 0.00 0.00 0.13 99 1011.1
20260831014231 23 148 0.0 0.0 0.00 0.00 0.13 99 1011.1
20260831013622 23 142 0.0 0.0 0.00 0.00 0.13 99 1011.1
20260831013049 23 143 0.0 0.0 0.00 0.00 0.13 99 1010.8
20260831012433 23 145 0.0 0.0 0.00 0.00 0.13 99 1010.8
20260831011251 23 138 0.0 0.0 0.00 0.00 0.13 99 1010.8
20260831010633 23 139 0.0 0.0 0.00 0.00 0.13 99 1010.8
20260831010048 23 140 0.0 0.0 0.00 0.00 0.13 98 1010.8
20260831005445 23 142 0.0 0.0 0.00 0.00 0.13 98 1010.8
20260831004839 23 138 0.0 0.0 0.00 0.00 0.13 98 1010.4
20260831004244 23 128 0.0 0.0 0.00 0.00 0.13 98 1010.4
20260831003639 23 134 0.0 0.0 0.00 0.00 0.13 97 1010.1
20260831003016 24 129 0.0 0.0 0.00 0.00 0.13 97 1010.1
20260831001838 25 146 0.0 0.0 0.00 0.00 0.13 96 1010.1
20260831001209 25 138 0.0 0.0 0.00 0.00 0.13 94 1010.1
20260831000649 25 143 0.0 0.0 0.00 0.00 0.13 93 1010.1
20260831000024 26 141 0.0 0.0 0.00 0.00 0.13 92 1010.1
20260830234847 27 143 0.0 0.0 0.00 0.00 0.13 89 1009.8
20260830234227 27 146 0.0 0.0 0.00 0.00 0.13 86 1010.1
20260830233608 28 138 0.0 0.0 0.00 0.00 0.13 85 1010.1
20260830232412 28 138 0.0 0.0 0.00 0.00 0.13 86 1009.8
20260830231227 28 138 0.0 0.0 0.00 0.00 0.13 87 1009.8
20260830230609 28 133 0.0 0.0 0.00 0.00 0.13 86 1009.4
20260830230024 28 124 0.0 0.0 0.00 0.00 0.13 85 1009.4
20260830224842 28 143 0.0 0.0 0.00 0.00 0.13 89 1009.4
20260830224245 28 144 0.0 0.0 0.00 0.00 0.13 89 1009.4
20260830223615 28 148 0.0 0.0 0.00 0.00 0.13 89 1009.8
20260830222427 28 139 0.0 0.0 0.00 0.00 0.13 90 1009.4
20260830221823 28 162 0.0 0.0 0.00 0.00 0.13 90 1009.8
20260830215444 27 143 0.0 0.0 0.00 0.00 0.13 92 1009.8
20260830214824 27 148 0.0 0.0 0.00 0.00 0.13 93 1010.4
20260830214234 27 162 0.0 0.0 0.00 0.00 0.13 93 1010.1
20260830213610 27 135 0.0 0.0 0.00 0.00 0.13 93 1010.1
20260830212447 27 152 0.0 0.0 0.00 0.00 0.13 93 1010.1
20260830211844 26 137 0.0 0.0 0.00 0.00 0.13 93 1010.1
20260830211221 26 139 0.0 0.0 0.00 0.00 0.13 93 1010.4
20260830210613 26 142 0.0 0.0 0.00 0.00 0.13 94 1010.1
20260830210045 26 159 0.0 0.0 0.00 0.00 0.13 93 1010.4
20260830205430 26 163 0.0 0.0 0.00 0.00 0.13 94 1010.4
20260830204832 26 134 0.0 0.0 0.00 0.00 0.13 93 1010.4
20260830204247 26 139 0.0 0.0 0.00 0.00 0.13 92 1010.4
20260830203641 26 159 0.0 1.6 0.00 0.00 0.13 90 1010.4
20260830203047 26 121 0.0 0.0 0.00 0.00 0.10 87 1010.8
20260830202427 26 163 1.6 3.2 0.00 0.00 0.10 81 1011.1
20260830201822 27 324 4.8 4.8 0.00 0.00 0.10 79 1010.8
20260830201226 28 149 0.0 0.0 0.00 0.00 0.10 84 1010.8
20260830200650 28 166 1.6 1.6 0.00 0.00 0.10 77 1010.8
20260830200025 30 19 3.2 4.8 0.00 0.00 0.10 79 1010.8
20260830195416 31 165 0.0 0.0 0.00 0.00 0.10 83 1011.1
20260830194833 30 186 1.6 1.6 0.00 0.00 0.10 87 1010.8
20260830194212 27 175 0.0 0.0 0.00 0.00 0.10 92 1010.8
20260830193608 27 131 0.0 0.0 0.00 0.00 0.10 90 1010.8
20260830193024 27 149 1.6 1.6 0.00 0.00 0.10 96 1010.8
20260830192415 26 138 0.0 1.6 0.00 0.00 0.10 94 1011.1
20260830191819 26 145 0.0 0.0 0.00 0.00 0.10 90 1011.1
20260830191225 27 104 0.0 1.6 0.00 0.00 0.10 84 1010.8
20260830190633 31 154 0.0 1.6 0.00 0.00 0.00 73 1011.1
20260830185433 32 302 3.2 3.2 0.00 0.00 0.00 67 1010.8
20260830184830 32 218 1.6 1.6 0.00 0.00 0.00 64 1010.8
20260830183639 32 228 3.2 4.8 0.00 0.00 0.00 64 1011.1
20260830183021 32 205 1.6 3.2 0.00 0.00 0.00 67 1011.1
20260830182440 33 211 4.8 4.8 0.00 0.00 0.00 65 1011.1
20260830181841 33 273 3.2 3.2 0.00 0.00 0.00 64 1011.5
20260830180617 32 13 4.8 4.8 0.00 0.00 0.00 71 1011.8
20260830180049 32 322 4.8 6.4 0.00 0.00 0.00 68 1012.1
20260830175448 32 272 3.2 4.8 0.00 0.00 0.00 71 1011.8
20260830174847 32 291 4.8 6.4 0.00 0.00 0.00 69 1012.1
20260830174207 32 297 6.4 6.4 0.00 0.00 0.00 69 1011.8
20260830173011 31 12 3.2 3.2 0.00 0.00 0.00 69 1012.1
20260830172446 31 205 4.8 6.4 0.00 0.00 0.00 69 1012.1
20260830171844 31 214 4.8 4.8 0.00 0.00 0.00 72 1012.1
20260830171240 31 291 4.8 4.8 0.00 0.00 0.00 70 1012.5
20260830170609 31 333 6.4 9.7 0.00 0.00 0.00 69 1012.5
20260830170047 31 255 3.2 3.2 0.00 0.00 0.00 71 1012.5
20260830165423 31 8 3.2 4.8 0.00 0.00 0.00 73 1012.5
20260830164843 31 184 3.2 3.2 0.00 0.00 0.00 74 1012.5
20260830163613 30 7 3.2 3.2 0.00 0.00 0.00 75 1012.5
20260830163045 30 286 6.4 9.7 0.00 0.00 0.00 73 1012.8
20260830162414 30 21 4.8 4.8 0.00 0.00 0.00 73 1012.5
20260830161808 30 328 3.2 4.8 0.00 0.00 0.00 75 1012.8
20260830161233 30 296 3.2 3.2 0.00 0.00 0.00 75 1012.8
20260830160638 30 211 1.6 1.6 0.00 0.00 0.00 77 1012.8
20260830160022 29 268 3.2 4.8 0.00 0.00 0.00 79 1012.5
20260830155408 28 274 3.2 3.2 0.00 0.00 0.00 78 1012.8
20260830154835 28 300 3.2 3.2 0.00 0.00 0.00 78 1012.8
20260830154209 28 250 1.6 3.2 0.00 0.00 0.00 78 1012.8
20260830153644 28 315 3.2 4.8 0.00 0.00 0.00 77 1012.5
20260830153010 28 349 1.6 3.2 0.00 0.00 0.00 77 1013.2
20260830152442 28 181 1.6 3.2 0.00 0.00 0.00 80 1012.8
20260830151815 28 90 1.6 1.6 0.00 0.00 0.00 79 1012.8
20260830151230 28 352 3.2 3.2 0.00 0.00 0.00 80 1012.8
20260830150633 27 250 4.8 6.4 0.00 0.00 0.00 81 1012.8
20260830150025 27 151 0.0 1.6 0.00 0.00 0.00 83 1012.8
20260830144842 27 159 1.6 1.6 0.00 0.00 0.00 87 1012.5
20260830144239 27 138 0.0 0.0 0.00 0.00 0.00 85 1012.5
20260830143032 26 124 0.0 1.6 0.00 0.00 0.00 89 1012.5
20260830142435 26 16 4.8 4.8 0.00 0.00 0.00 89 1012.5
20260830141828 25 65 1.6 3.2 0.00 0.00 0.00 91 1012.5
20260830141231 25 114 1.6 1.6 0.00 0.00 0.00 92 1012.5
20260830140619 25 133 0.0 0.0 0.00 0.00 0.00 95 1012.1
20260830140008 24 136 0.0 0.0 0.00 0.00 0.00 96 1012.1
20260830135409 24 134 0.0 0.0 0.00 0.00 0.00 96 1012.5
20260830134841 23 124 0.0 0.0 0.00 0.00 0.00 98 1012.1
20260830134218 22 127 0.0 0.0 0.00 0.00 0.00 99 1012.1
20260830133641 22 139 0.0 0.0 0.00 0.00 0.00 99 1012.1
20260830133040 22 139 0.0 0.0 0.00 0.00 0.00 99 1012.5
20260830132432 21 138 0.0 0.0 0.00 0.00 0.00 99 1012.5
20260830131841 21 138 0.0 0.0 0.00 0.00 0.00 99 1012.5
20260830130626 20 139 0.0 0.0 0.00 0.00 0.00 99 1012.5
20260830130032 20 138 0.0 0.0 0.00 0.00 0.00 99 1012.5
20260830125410 20 140 0.0 0.0 0.00 0.00 0.00 99 1012.8
20260830124824 20 138 0.0 0.0 0.00 0.00 0.00 99 1012.5
20260830124210 20 138 0.0 0.0 0.00 0.00 0.00 99 1012.5
20260830123648 19 138 0.0 0.0 0.00 0.00 0.00 99 1012.5
20260830123041 19 138 0.0 0.0 0.00 0.00 0.00 99 1012.5
20260830122422 19 138 0.0 0.0 0.00 0.00 0.00 99 1012.1
20260830121823 18 138 0.0 0.0 0.00 0.00 0.00 99 1012.1
20260830121238 18 137 0.0 0.0 0.00 0.00 0.00 99 1012.1
20260830120635 18 139 0.0 0.0 0.00 0.00 0.00 99 1012.1
20260830120020 18 139 0.0 0.0 0.00 0.00 0.00 99 1012.1
20260830115413 18 139 0.0 0.0 0.00 0.00 0.00 99 1012.1
20260830114237 18 138 0.0 0.0 0.00 0.00 0.00 99 1012.1
20260830113612 18 138 0.0 0.0 0.00 0.00 0.00 99 1012.1
20260830113010 18 138 0.0 0.0 0.00 0.00 0.00 99 1012.1
20260830111844 18 138 0.0 0.0 0.00 0.00 0.00 99 1012.1
20260830111248 18 139 0.0 0.0 0.00 0.00 0.00 99 1012.1
20260830110643 18 138 0.0 0.0 0.00 0.00 0.00 99 1012.1
20260830110042 18 138 0.0 0.0 0.00 0.00 0.00 99 1012.1
20260830105421 18 138 0.0 0.0 0.00 0.00 0.00 99 1012.1
20260830104833 18 137 0.0 0.0 0.00 0.00 0.00 99 1011.8
20260830104212 18 138 0.0 0.0 0.00 0.00 0.00 99 1012.1
20260830103627 18 138 0.0 0.0 0.00 0.00 0.00 99 1011.8
20260830103035 18 138 0.0 0.0 0.00 0.00 0.00 99 1011.8
20260830102420 18 139 0.0 0.0 0.00 0.00 0.00 99 1011.8
20260830101824 18 139 0.0 0.0 0.00 0.00 0.00 99 1011.8
20260830100638 18 140 0.0 0.0 0.00 0.00 0.00 99 1011.8
20260830100015 18 139 0.0 0.0 0.00 0.00 0.00 99 1011.8
20260830095434 18 139 0.0 0.0 0.00 0.00 0.00 99 1011.8
20260830094813 18 139 0.0 0.0 0.00 0.00 0.00 99 1012.1
20260830094230 18 139 0.0 0.0 0.00 0.00 0.00 99 1012.1
20260830093020 18 139 0.0 0.0 0.00 0.00 0.00 99 1011.8
20260830091814 18 139 0.0 0.0 0.00 0.00 0.00 99 1011.8
20260830091211 19 139 0.0 0.0 0.00 0.00 0.00 99 1011.8
20260830090627 19 139 0.0 0.0 0.00 0.00 0.00 99 1011.8
20260830090049 18 139 0.0 0.0 0.00 0.00 0.00 99 1012.1
20260830084825 18 139 0.0 0.0 0.00 0.00 0.00 99 1011.8
20260830084222 18 139 0.0 0.0 0.00 0.00 0.00 99 1012.1
20260830083636 19 139 0.0 0.0 0.00 0.00 0.00 99 1012.1
20260830083020 19 138 0.0 0.0 0.00 0.00 0.00 99 1012.1
20260830082442 19 138 0.0 0.0 0.00 0.00 0.00 99 1012.1
20260830080613 19 138 0.0 0.0 0.00 0.00 0.00 99 1011.8
20260830075416 19 138 0.0 0.0 0.00 0.00 0.00 99 1011.8
20260830074844 19 137 0.0 0.0 0.00 0.00 0.00 99 1011.8
20260830073607 19 140 0.0 0.0 0.00 0.00 0.00 99 1011.8
20260830072423 19 137 0.0 0.0 0.00 0.00 0.00 99 1011.5
20260830071823 19 135 0.0 0.0 0.00 0.00 0.00 99 1011.8
20260830071225 19 134 0.0 0.0 0.00 0.00 0.00 99 1011.8
20260830070641 19 133 0.0 0.0 0.00 0.00 0.00 99 1011.8
20260830065441 19 130 0.0 0.0 0.00 0.00 0.00 99 1011.8
20260830064823 19 130 0.0 0.0 0.00 0.00 0.00 99 1011.8
20260830064225 19 131 0.0 0.0 0.00 0.00 0.00 99 1011.5
20260830063616 20 128 0.0 0.0 0.00 0.00 0.00 99 1011.8
20260830063044 20 129 0.0 0.0 0.00 0.00 0.00 99 1011.8
20260830062425 20 129 0.0 0.0 0.00 0.00 0.00 99 1011.8
20260830061818 20 129 0.0 0.0 0.00 0.00 0.00 99 1011.8
20260830061239 20 130 0.0 0.0 0.00 0.00 0.00 99 1012.1
20260830060615 20 126 0.0 0.0 0.00 0.00 0.00 99 1012.1
20260830060010 20 128 0.0 0.0 0.00 0.00 0.00 99 1012.1
20260830055414 20 130 0.0 0.0 0.00 0.00 0.00 99 1012.1
20260830054818 20 130 0.0 0.0 0.00 0.00 0.00 99 1012.1
20260830054212 20 130 0.0 0.0 0.00 0.00 0.00 99 1012.1
20260830053622 20 130 0.0 0.0 0.00 0.00 0.00 99 1012.1